STARLINK-38127, 100155

Orbit data source: Space-Track

STARLINK-38127, 100155 is a payload satellite owned by SpaceX/Seattle (US) in SSO that was launched on Sat, 25 Jul 2026 UTC launched from the Air Force Western Test Range (AFWTR). Payload-class satellites include a variety of spacecraft equipped with specific instruments for various scientific and technological missions. These include communications satellites like Starlink; space stations such as the ISS; scientific satellites like the Hubble; Earth observation satellites from companies like Planet Labs, Umbra, and HawkEye 360; GPS; miniature CubeSats for education and research; and military/defense satellites.

Loading next visibility...
Identifier
100155, 2026-171H
Orbit
SSO
Country
Flag of USUS
Related business
Manufacturer
SpaceX/Seattle
Mission
Operational spacecraft
Bus & Motor
STARLINK V2MO, Unknown motor
Mass
575 kg wet, ~530 kg dry
Launch date (UTC)
2026-07-25 (3 weeks ago)
Launch vehicle
Unknown
Launch site
Air Force Western Test Range (AFWTR)
Object type
Payload
Rocket body
Debris
Shape & HBR
BOX + PAN, 17.7 m
Radar Cross Section
RCS unknown

Expand to show TLE details & history
Last TLE update: 14 hours ago

TLE from 14 hours ago
0 STARLINK-38127
1 A0155U 26171H   26227.34249545  .00101408  00000-0  67280-3 0  9993
2 A0155  97.2831 259.2171 0001698 121.9297 238.2134 15.75186448  3280
Epoch: 2026-08-15T08:13Z
TLE epoch observation values (Epoch: 2026-08-15T08:13:11.606Z)
Latitude
-0°
Longitude
172.164°
Altitude
347.871 km
Speed
7.7 km/s
True Right ascension
17h 16m 52s
True Declination
0° 00' 00"
Sunlit
Object was in full shadow at epoch
Visualization orbit readout
Latitude
Unknown
Longitude
Unknown
Altitude
Unknown
Speed
Unknown
Apparent Right ascension
Unknown
Apparent Declination
Unknown
Sunlit
N/A
Visualization observer readout
Local Sidereal Time
12:29:36
Azimuth
Unknown
Elevation
Unknown
Doppler factor
Unknown
Orbital elements
Apogee altitude
342.129 km
Perigee altitude
339.847 km
Semi-major axis
6,719.125 km
Eccentricity
0.00017
Inclination
97.2831°
RAAN
259.2171°
Arg. of periapsis
121.9297°
True anomaly
238.19686°
Mean anomaly
238.2134°
Eccentric anomaly
238.20513°
Mean motion
3.94071 °/min
Orbital period
91.35 mins
BSTAR
0.0006728
Loading maneuver chart data...
Computing Atmospheric mass density...
Loading historical data...
Loading historical data...
Loading historical data...
Loading historical data...
Loading historical data...
Loading historical data...
Loading historical data...

Documentation

Showing up to 5 results
|